Weather History for KGUY - October, 2014

Change the Weather History Date:

Saturday, October 4, 2014

  Actual Average Record
Temperature  
Mean Temperature 60 °F 62 °F  
Max Temperature 80 °F 77 °F 96 °F (2007)
Min Temperature 39 °F 47 °F 30 °F (1999)
Degree Days  
Heating Degree Days 5 5  
Month to date heating degree days 22 18  
Since 1 July heating degree days 52 61  
Cooling Degree Days 0 2  
Month to date cooling degree days 3 9  
Year to date cooling degree days 1676 1463  
Growing Degree Days 10 (Base 50)    
Moisture  
Dew Point 33 °F    
Average Humidity 43    
Maximum Humidity 70    
Minimum Humidity 16    
Precipitation  
Precipitation 0.00 in 0.07 in 0.05 in (2004)
Month to date precipitation T 0.29  
Year to date precipitation 10.29 16.85  
Snow  
Snow 0.00 in - - ()
Month to date snowfall 0.0  
Since 1 July snowfall 0.0  
Since 1 September snowfall 0.0  
Snow Depth 0.00 in    
Sea Level Pressure  
Sea Level Pressure 30.02 in    
Wind  
Wind Speed 6 mph (SW)    
Max Wind Speed 24 mph    
Max Gust Speed 31 mph    
Visibility 10 miles    
Events      
T = Trace of Precipitation, MM = Missing Value Source: NWS Daily Summary

Daily Weather History Graph

Daily Weather History Graph

Search for Another Location

Airport or City:

Trip Planner

Search our weather history database for the weather conditions in past years. The results will help you decide how hot, cold, wet, or windy it might be!

Date:

Astronomy

Oct. 04, 2014 Rise Set
Actual Time 7:43 AM CDT 7:24 PM CDT
Civil Twilight 7:18 AM CDT 7:50 PM CDT
Nautical Twilight 6:48 AM CDT 8:20 PM CDT
Astronomical Twilight 6:17 AM CDT 8:50 PM CDT
Moon 4:57 PM CDT (10/4) 3:20 AM CDT (10/4)
Length of Visible Light 12h 32m
Length of Day
11h 41m
Waxing Gibbous, 81% of the Moon is Illuminated
Oct 4
Waxing Gibbous
Oct 8
Full
Oct 15
Last Quarter
Oct 23
New
Oct 30
First Quarter

Hourly Weather History & Observations

Time (CDT) Temp. Windchill Dew Point Humidity Pressure Visibility Wind Dir Wind Speed Gust Speed Precip Events Conditions
12:53 AM 44.1 °F - 27.0 °F 51% 30.22 in 10.0 mi Calm Calm - N/A   Clear
1:53 AM 43.0 °F - 28.9 °F 58% 30.21 in 10.0 mi Calm Calm - N/A   Clear
2:53 AM 39.9 °F 36.7 °F 28.9 °F 65% 30.19 in 10.0 mi South 4.6 mph - N/A   Clear
3:53 AM 39.0 °F 35.7 °F 30.0 °F 70% 30.16 in 10.0 mi SSW 4.6 mph - N/A   Clear
4:53 AM 43.0 °F 38.8 °F 30.9 °F 62% 30.15 in 10.0 mi SW 6.9 mph - N/A   Clear
5:53 AM 41.0 °F 36.4 °F 32.0 °F 70% 30.14 in 10.0 mi SW 6.9 mph - N/A   Clear
6:53 AM 42.1 °F 37.1 °F 33.1 °F 70% 30.12 in 10.0 mi SW 8.1 mph - N/A   Clear
7:53 AM 44.1 °F 39.5 °F 34.0 °F 68% 30.13 in 10.0 mi SW 8.1 mph - N/A   Clear
8:53 AM 53.1 °F - 37.0 °F 55% 30.10 in 10.0 mi SW 13.8 mph - N/A   Clear
9:53 AM 61.0 °F - 37.9 °F 42% 30.09 in 10.0 mi SW 19.6 mph 26.5 mph N/A   Clear
10:53 AM 64.9 °F - 39.9 °F 40% 30.07 in 10.0 mi WSW 20.7 mph 27.6 mph N/A   Clear
11:53 AM 68.0 °F - 41.0 °F 37% 30.05 in 10.0 mi WSW 13.8 mph - N/A   Clear
12:53 PM 72.0 °F - 42.1 °F 34% 30.02 in 10.0 mi West 11.5 mph 19.6 mph N/A   Clear
1:53 PM 75.9 °F - 39.9 °F 27% 29.97 in 10.0 mi SW 10.4 mph - N/A   Clear
2:53 PM 77.0 °F - 37.9 °F 24% 29.94 in 10.0 mi Calm Calm - N/A   Clear
3:53 PM 79.0 °F - 30.0 °F 17% 29.92 in 10.0 mi Calm Calm - N/A   Clear
4:53 PM 80.1 °F - 30.0 °F 16% 29.89 in 10.0 mi Calm Calm - N/A   Clear
5:53 PM 79.0 °F - 28.0 °F 15% 29.88 in 10.0 mi NNE 5.8 mph - N/A   Clear
6:53 PM 75.9 °F - 28.0 °F 17% 29.88 in 10.0 mi ENE 4.6 mph - N/A   Clear
7:53 PM 70.0 °F - 30.0 °F 23% 29.89 in 10.0 mi Calm Calm - N/A   Clear
8:53 PM 61.0 °F - 32.0 °F 34% 29.90 in 10.0 mi South 5.8 mph - N/A   Clear
9:53 PM 60.1 °F - 33.1 °F 36% 29.88 in 10.0 mi South 4.6 mph - N/A   Clear
10:53 PM 55.0 °F - 35.1 °F 47% 29.89 in 10.0 mi SSW 4.6 mph - N/A   Clear
11:53 PM 55.0 °F - 35.1 °F 47% 29.87 in 10.0 mi Calm Calm - N/A   Clear